| time (UTC) | temp F | wind direction | speed MPH | gust MPH | rain 1hr in | rain 24hr in | rain mn in | humidity % | barometer mb |
| 20260506062434 | 75 | 179 | 4.0 | 7.0 | 0.00 | 0.00 | 0.00 | 94 | 1009.0 |
| 20260506061930 | 75 | 175 | 4.0 | 5.0 | 0.00 | 0.00 | 0.00 | 94 | 1008.9 |
| 20260506061426 | 75 | 183 | 3.0 | 5.0 | 0.00 | 0.00 | 0.00 | 94 | 1009.0 |
| 20260506060925 | 75 | 144 | 5.0 | 7.0 | 0.00 | 0.00 | 0.00 | 94 | 1009.2 |
| 20260506060422 | 75 | 219 | 2.0 | 3.0 | 0.00 | 0.00 | 0.00 | 94 | 1009.2 |
| 20260506051354 | 76 | 198 | 3.0 | 5.0 | 0.00 | 0.00 | 0.00 | 94 | 1009.1 |
| 20260506050851 | 76 | 214 | 2.0 | 5.0 | 0.00 | 0.00 | 0.00 | 94 | 1009.1 |
| 20260506050349 | 76 | 170 | 2.0 | 3.0 | 0.00 | 0.00 | 0.00 | 93 | 1009.3 |
| 20260506044839 | 76 | 177 | 0.0 | 2.0 | 0.00 | 0.00 | 0.00 | 94 | 1009.4 |
| 20260506044337 | 76 | 182 | 5.0 | 7.0 | 0.00 | 0.00 | 0.00 | 94 | 1009.1 |
| 20260506043834 | 76 | 202 | 3.0 | 5.0 | 0.00 | 0.00 | 0.00 | 94 | 1009.0 |
| 20260506043331 | 76 | 170 | 3.0 | 5.0 | 0.00 | 0.00 | 0.00 | 93 | 1009.1 |
| 20260506042829 | 76 | 120 | 3.0 | 5.0 | 0.00 | 0.00 | 0.00 | 93 | 1009.0 |
| 20260506042328 | 76 | 169 | 1.0 | 2.0 | 0.00 | 0.00 | 0.00 | 92 | 1009.2 |
| 20260506041827 | 77 | 128 | 4.0 | 5.0 | 0.00 | 0.00 | 0.00 | 92 | 1009.1 |
| 20260506041323 | 76 | 159 | 5.0 | 7.0 | 0.00 | 0.00 | 0.00 | 92 | 1008.8 |
| 20260506040820 | 76 | 149 | 0.0 | 2.0 | 0.00 | 0.00 | 0.00 | 92 | 1008.9 |
| 20260506040318 | 76 | 193 | 2.0 | 3.0 | 0.00 | 0.00 | 0.00 | 92 | 1008.5 |
| 20260506035814 | 76 | 138 | 4.0 | 5.0 | 0.00 | 0.00 | 0.00 | 92 | 1008.9 |
| 20260506035311 | 77 | 139 | 0.0 | 0.0 | 0.00 | 0.00 | 0.00 | 91 | 1008.6 |
| 20260506034809 | 77 | 206 | 4.0 | 5.0 | 0.00 | 0.00 | 0.00 | 91 | 1008.4 |
| 20260506034306 | 77 | 143 | 3.0 | 3.0 | 0.00 | 0.00 | 0.00 | 90 | 1008.5 |
| 20260506033802 | 77 | 213 | 3.0 | 3.0 | 0.00 | 0.00 | 0.00 | 91 | 1008.6 |
| 20260506033259 | 77 | 152 | 4.0 | 7.0 | 0.00 | 0.00 | 0.00 | 91 | 1008.4 |
| 20260506032756 | 77 | 165 | 1.0 | 2.0 | 0.00 | 0.00 | 0.00 | 91 | 1008.5 |
| 20260506032253 | 77 | 146 | 0.0 | 0.0 | 0.00 | 0.00 | 0.00 | 90 | 1008.5 |
| 20260506031750 | 77 | 184 | 2.0 | 3.0 | 0.00 | 0.00 | 0.00 | 90 | 1008.1 |
| 20260506031247 | 78 | 184 | 1.0 | 2.0 | 0.00 | 0.00 | 0.00 | 89 | 1008.2 |
| 20260506030745 | 78 | 176 | 1.0 | 2.0 | 0.00 | 0.00 | 0.00 | 88 | 1008.5 |
| 20260506030243 | 78 | 173 | 3.0 | 5.0 | 0.00 | 0.00 | 0.00 | 87 | 1008.3 |
| 20260506025739 | 78 | 177 | 1.0 | 3.0 | 0.00 | 0.00 | 0.00 | 87 | 1008.4 |
| 20260506025236 | 78 | 40 | 3.0 | 3.0 | 0.00 | 0.00 | 0.00 | 87 | 1008.0 |
| 20260506024732 | 78 | 190 | 1.0 | 2.0 | 0.00 | 0.00 | 0.00 | 86 | 1008.1 |
| 20260506024229 | 78 | 138 | 0.0 | 2.0 | 0.00 | 0.00 | 0.00 | 86 | 1008.0 |
| 20260506023720 | 79 | 174 | 2.0 | 2.0 | 0.00 | 0.00 | 0.00 | 85 | 1007.8 |
| 20260506023217 | 79 | 186 | 1.0 | 2.0 | 0.00 | 0.00 | 0.00 | 85 | 1007.7 |
| 20260506022714 | 79 | 147 | 0.0 | 2.0 | 0.00 | 0.00 | 0.00 | 85 | 1007.6 |
| 20260506022212 | 78 | 184 | 1.0 | 2.0 | 0.00 | 0.00 | 0.00 | 86 | 1007.4 |
| 20260506021709 | 79 | 164 | 0.0 | 0.0 | 0.00 | 0.00 | 0.00 | 85 | 1007.5 |
| 20260506021206 | 79 | 166 | 0.0 | 0.0 | 0.00 | 0.00 | 0.00 | 85 | 1007.4 |
| 20260506020703 | 79 | 113 | 2.0 | 3.0 | 0.00 | 0.00 | 0.00 | 84 | 1007.4 |
| 20260506020201 | 79 | 161 | 0.0 | 0.0 | 0.00 | 0.00 | 0.00 | 84 | 1007.1 |
| 20260506015658 | 79 | 141 | 0.0 | 0.0 | 0.00 | 0.00 | 0.00 | 84 | 1007.2 |
| 20260506015155 | 79 | 162 | 0.0 | 0.0 | 0.00 | 0.00 | 0.00 | 84 | 1007.1 |
| 20260506014653 | 80 | 137 | 0.0 | 2.0 | 0.00 | 0.00 | 0.00 | 83 | 1006.9 |
| 20260506014148 | 80 | 221 | 1.0 | 3.0 | 0.00 | 0.00 | 0.00 | 83 | 1007.0 |
| 20260506013646 | 80 | 203 | 0.0 | 2.0 | 0.00 | 0.00 | 0.00 | 83 | 1006.8 |
| 20260506013143 | 80 | 162 | 0.0 | 2.0 | 0.00 | 0.00 | 0.00 | 82 | 1006.9 |
| 20260506012639 | 80 | 191 | 3.0 | 3.0 | 0.00 | 0.00 | 0.00 | 83 | 1007.0 |
| 20260506012136 | 80 | 148 | 0.0 | 0.0 | 0.00 | 0.00 | 0.00 | 82 | 1006.9 |
| 20260506011634 | 80 | 207 | 0.0 | 0.0 | 0.00 | 0.00 | 0.00 | 82 | 1007.0 |
| 20260506011130 | 81 | 140 | 0.0 | 0.0 | 0.00 | 0.00 | 0.00 | 81 | 1006.8 |
| 20260506010629 | 81 | 164 | 1.0 | 2.0 | 0.00 | 0.00 | 0.00 | 81 | 1006.8 |
| 20260506010125 | 81 | 136 | 0.0 | 0.0 | 0.00 | 0.00 | 0.00 | 80 | 1006.8 |
| 20260506005622 | 81 | 187 | 0.0 | 0.0 | 0.00 | 0.00 | 0.00 | 80 | 1006.9 |
| 20260506005118 | 81 | 174 | 0.0 | 2.0 | 0.00 | 0.00 | 0.00 | 79 | 1007.0 |
| 20260506004615 | 82 | 135 | 2.0 | 3.0 | 0.00 | 0.00 | 0.00 | 79 | 1006.8 |
| 20260506004112 | 82 | 109 | 1.0 | 3.0 | 0.00 | 0.00 | 0.00 | 78 | 1006.8 |
| 20260506003609 | 82 | 188 | 0.0 | 2.0 | 0.00 | 0.00 | 0.00 | 78 | 1006.9 |
| 20260506003105 | 82 | 230 | 3.0 | 5.0 | 0.00 | 0.00 | 0.00 | 78 | 1006.9 |
| 20260506002601 | 82 | 111 | 2.0 | 3.0 | 0.00 | 0.00 | 0.00 | 77 | 1007.0 |
| 20260506002057 | 82 | 140 | 0.0 | 2.0 | 0.00 | 0.00 | 0.00 | 77 | 1007.1 |
| 20260506001553 | 82 | 166 | 2.0 | 3.0 | 0.00 | 0.00 | 0.00 | 77 | 1007.1 |
| 20260506001050 | 82 | 139 | 0.0 | 0.0 | 0.00 | 0.00 | 0.00 | 77 | 1007.0 |
| 20260506000548 | 82 | 146 | 0.0 | 2.0 | 0.00 | 0.00 | 0.00 | 77 | 1007.0 |
| 20260506000045 | 82 | 191 | 0.0 | 2.0 | 0.00 | 0.00 | 0.00 | 76 | 1006.9 |
| 20260505235543 | 82 | 290 | 2.0 | 3.0 | 0.00 | 0.00 | 0.00 | 76 | 1006.8 |
| 20260505235040 | 82 | 119 | 5.0 | 5.0 | 0.00 | 0.00 | 0.00 | 76 | 1006.8 |
| 20260505234537 | 83 | 190 | 5.0 | 7.0 | 0.00 | 0.00 | 0.00 | 76 | 1006.5 |
| 20260505234033 | 83 | 224 | 5.0 | 7.0 | 0.00 | 0.00 | 0.00 | 75 | 1006.6 |
| 20260505233531 | 83 | 180 | 3.0 | 5.0 | 0.00 | 0.00 | 0.00 | 75 | 1006.8 |
| 20260505233028 | 83 | 157 | 1.0 | 2.0 | 0.00 | 0.00 | 0.00 | 74 | 1006.8 |
| 20260505232526 | 83 | 148 | 3.0 | 3.0 | 0.00 | 0.00 | 0.00 | 74 | 1006.4 |
| 20260505232023 | 83 | 200 | 5.0 | 7.0 | 0.00 | 0.00 | 0.00 | 74 | 1006.4 |
| 20260505231520 | 84 | 34 | 3.0 | 5.0 | 0.00 | 0.00 | 0.00 | 74 | 1006.2 |
| 20260505231019 | 84 | 173 | 2.0 | 3.0 | 0.00 | 0.00 | 0.00 | 74 | 1006.4 |
| 20260505230516 | 83 | 161 | 2.0 | 3.0 | 0.00 | 0.00 | 0.00 | 74 | 1006.4 |
| 20260505230012 | 84 | 141 | 5.0 | 9.0 | 0.00 | 0.00 | 0.00 | 73 | 1006.3 |
| 20260505225509 | 84 | 17 | 3.0 | 7.0 | 0.00 | 0.00 | 0.00 | 73 | 1006.2 |
| 20260505225005 | 84 | 229 | 6.0 | 7.0 | 0.00 | 0.00 | 0.00 | 73 | 1006.0 |
| 20260505224502 | 84 | 240 | 3.0 | 5.0 | 0.00 | 0.00 | 0.00 | 72 | 1006.2 |
| 20260505223959 | 84 | 185 | 2.0 | 2.0 | 0.00 | 0.00 | 0.00 | 72 | 1006.4 |
| 20260505223456 | 85 | 157 | 4.0 | 5.0 | 0.00 | 0.00 | 0.00 | 71 | 1006.3 |
| 20260505222953 | 84 | 300 | 3.0 | 3.0 | 0.00 | 0.00 | 0.00 | 72 | 1006.3 |
| 20260505222449 | 85 | 229 | 5.0 | 7.0 | 0.00 | 0.00 | 0.00 | 72 | 1006.3 |
| 20260505221944 | 85 | 230 | 3.0 | 5.0 | 0.00 | 0.00 | 0.00 | 71 | 1006.2 |
| 20260505221442 | 85 | 188 | 2.0 | 3.0 | 0.00 | 0.00 | 0.00 | 71 | 1006.2 |
| 20260505220939 | 85 | 231 | 3.0 | 5.0 | 0.00 | 0.00 | 0.00 | 71 | 1006.3 |
| 20260505220436 | 85 | 150 | 5.0 | 10.0 | 0.00 | 0.00 | 0.00 | 71 | 1006.3 |
| 20260505215934 | 85 | 160 | 2.0 | 3.0 | 0.00 | 0.00 | 0.00 | 70 | 1006.3 |
| 20260505215432 | 86 | 192 | 3.0 | 3.0 | 0.00 | 0.00 | 0.00 | 70 | 1006.6 |
| 20260505214929 | 86 | 169 | 1.0 | 2.0 | 0.00 | 0.00 | 0.00 | 71 | 1006.4 |
| 20260505214427 | 85 | 164 | 3.0 | 3.0 | 0.00 | 0.00 | 0.00 | 72 | 1006.4 |
| 20260505213924 | 86 | 125 | 3.0 | 7.0 | 0.00 | 0.00 | 0.00 | 71 | 1006.8 |
| 20260505213422 | 86 | 285 | 2.0 | 5.0 | 0.00 | 0.00 | 0.00 | 71 | 1007.0 |
| 20260505212917 | 86 | 179 | 2.0 | 3.0 | 0.00 | 0.00 | 0.00 | 70 | 1007.0 |
| 20260505212415 | 86 | 167 | 4.0 | 5.0 | 0.00 | 0.00 | 0.00 | 70 | 1006.8 |
| 20260505211911 | 86 | 205 | 2.0 | 5.0 | 0.00 | 0.00 | 0.00 | 71 | 1006.9 |
| 20260505211409 | 86 | 192 | 1.0 | 3.0 | 0.00 | 0.00 | 0.00 | 71 | 1007.1 |
| 20260505210905 | 86 | 175 | 3.0 | 9.0 | 0.00 | 0.00 | 0.00 | 72 | 1007.1 |
| 20260505210402 | 86 | 216 | 4.0 | 5.0 | 0.00 | 0.00 | 0.00 | 71 | 1007.1 |
| 20260505205859 | 85 | 153 | 2.0 | 3.0 | 0.00 | 0.00 | 0.00 | 71 | 1007.0 |
| 20260505205357 | 85 | 113 | 5.0 | 5.0 | 0.00 | 0.00 | 0.00 | 72 | 1007.2 |
| 20260505204854 | 86 | 176 | 1.0 | 3.0 | 0.00 | 0.00 | 0.00 | 72 | 1007.2 |
| 20260505204351 | 86 | 199 | 0.0 | 0.0 | 0.00 | 0.00 | 0.00 | 73 | 1007.0 |
| 20260505203848 | 85 | 163 | 1.0 | 2.0 | 0.00 | 0.00 | 0.00 | 72 | 1007.2 |
| 20260505203345 | 86 | 223 | 6.0 | 7.0 | 0.00 | 0.00 | 0.00 | 71 | 1007.2 |
| 20260505202841 | 86 | 177 | 2.0 | 3.0 | 0.00 | 0.00 | 0.00 | 72 | 1007.5 |
| 20260505202337 | 85 | 179 | 2.0 | 2.0 | 0.00 | 0.00 | 0.00 | 74 | 1007.6 |
| 20260505201834 | 85 | 293 | 2.0 | 3.0 | 0.00 | 0.00 | 0.00 | 72 | 1007.5 |
| 20260505201332 | 85 | 186 | 4.0 | 7.0 | 0.00 | 0.00 | 0.00 | 74 | 1007.8 |
| 20260505200830 | 86 | 168 | 5.0 | 9.0 | 0.00 | 0.00 | 0.00 | 73 | 1007.9 |
| 20260505200326 | 85 | 208 | 3.0 | 5.0 | 0.00 | 0.00 | 0.00 | 73 | 1008.1 |
| 20260505195822 | 86 | 130 | 1.0 | 2.0 | 0.00 | 0.00 | 0.00 | 71 | 1007.8 |
| 20260505195319 | 86 | 187 | 1.0 | 2.0 | 0.00 | 0.00 | 0.00 | 71 | 1007.8 |
| 20260505194817 | 86 | 125 | 4.0 | 7.0 | 0.00 | 0.00 | 0.00 | 72 | 1008.1 |
| 20260505194314 | 85 | 170 | 0.0 | 2.0 | 0.00 | 0.00 | 0.00 | 73 | 1008.1 |
| 20260505193809 | 86 | 165 | 2.0 | 3.0 | 0.00 | 0.00 | 0.00 | 71 | 1008.3 |
| 20260505193307 | 85 | 111 | 2.0 | 3.0 | 0.00 | 0.00 | 0.00 | 71 | 1008.3 |
| 20260505192805 | 85 | 150 | 2.0 | 3.0 | 0.00 | 0.00 | 0.00 | 73 | 1008.4 |
| 20260505192305 | 85 | 270 | 1.0 | 2.0 | 0.00 | 0.00 | 0.00 | 73 | 1008.2 |
| 20260505191800 | 86 | 242 | 3.0 | 3.0 | 0.00 | 0.00 | 0.00 | 71 | 1008.2 |
| 20260505191258 | 86 | 158 | 2.0 | 2.0 | 0.00 | 0.00 | 0.00 | 73 | 1008.4 |
| 20260505190754 | 85 | 233 | 3.0 | 5.0 | 0.00 | 0.00 | 0.00 | 74 | 1008.4 |
| 20260505190250 | 84 | 147 | 2.0 | 3.0 | 0.00 | 0.00 | 0.00 | 76 | 1008.5 |
| 20260505185746 | 84 | 163 | 3.0 | 5.0 | 0.00 | 0.00 | 0.00 | 74 | 1008.5 |
| 20260505185243 | 84 | 162 | 3.0 | 3.0 | 0.00 | 0.00 | 0.00 | 75 | 1008.4 |
| 20260505184739 | 84 | 135 | 5.0 | 9.0 | 0.00 | 0.00 | 0.00 | 73 | 1008.5 |
| 20260505184236 | 83 | 222 | 3.0 | 3.0 | 0.00 | 0.00 | 0.00 | 74 | 1008.7 |
| 20260505183733 | 83 | 147 | 4.0 | 5.0 | 0.00 | 0.00 | 0.00 | 75 | 1008.6 |
| 20260505183230 | 81 | 151 | 1.0 | 2.0 | 0.00 | 0.00 | 0.00 | 79 | 1008.9 |
| 20260505182726 | 80 | 181 | 0.0 | 2.0 | 0.00 | 0.00 | 0.00 | 80 | 1008.9 |
| 20260505182224 | 80 | 179 | 1.0 | 2.0 | 0.00 | 0.00 | 0.00 | 81 | 1009.1 |
| 20260505181720 | 80 | 180 | 1.0 | 2.0 | 0.00 | 0.00 | 0.00 | 80 | 1009.0 |
| 20260505181218 | 79 | 174 | 2.0 | 3.0 | 0.00 | 0.00 | 0.00 | 81 | 1009.0 |
| 20260505180714 | 79 | 167 | 1.0 | 2.0 | 0.00 | 0.00 | 0.00 | 83 | 1009.1 |
| 20260505180211 | 78 | 176 | 1.0 | 2.0 | 0.00 | 0.00 | 0.00 | 82 | 1009.1 |
| 20260505175707 | 78 | 211 | 4.0 | 9.0 | 0.00 | 0.00 | 0.00 | 83 | 1009.3 |
| 20260505175203 | 78 | 192 | 3.0 | 5.0 | 0.00 | 0.00 | 0.00 | 83 | 1009.4 |
| 20260505174700 | 77 | 217 | 5.0 | 12.0 | 0.00 | 0.00 | 0.00 | 84 | 1009.5 |
| 20260505174156 | 77 | 189 | 2.0 | 3.0 | 0.00 | 0.00 | 0.00 | 84 | 1009.5 |
| 20260505173653 | 78 | 162 | 4.0 | 5.0 | 0.00 | 0.00 | 0.00 | 83 | 1009.5 |
| 20260505173150 | 78 | 185 | 3.0 | 5.0 | 0.00 | 0.00 | 0.00 | 84 | 1009.4 |
| 20260505172647 | 78 | 2 | 1.0 | 2.0 | 0.00 | 0.00 | 0.00 | 84 | 1009.6 |
| 20260505172144 | 77 | 206 | 2.0 | 3.0 | 0.00 | 0.00 | 0.00 | 85 | 1009.5 |
| 20260505171643 | 76 | 169 | 0.0 | 0.0 | 0.00 | 0.00 | 0.00 | 87 | 1009.6 |
| 20260505171141 | 76 | 170 | 4.0 | 5.0 | 0.00 | 0.00 | 0.00 | 86 | 1009.6 |
| 20260505170638 | 75 | 199 | 3.0 | 3.0 | 0.00 | 0.00 | 0.00 | 88 | 1009.7 |
| 20260505170135 | 75 | 123 | 6.0 | 9.0 | 0.00 | 0.00 | 0.00 | 88 | 1009.7 |
| 20260505165634 | 75 | 134 | 3.0 | 3.0 | 0.00 | 0.00 | 0.00 | 88 | 1009.8 |
| 20260505165131 | 74 | 179 | 4.0 | 5.0 | 0.00 | 0.00 | 0.00 | 89 | 1009.7 |
| 20260505164626 | 74 | 253 | 4.0 | 5.0 | 0.00 | 0.00 | 0.00 | 89 | 1009.7 |
| 20260505164124 | 75 | 184 | 4.0 | 5.0 | 0.00 | 0.00 | 0.00 | 89 | 1009.7 |
| 20260505163623 | 74 | 158 | 2.0 | 3.0 | 0.00 | 0.00 | 0.00 | 89 | 1009.7 |
| 20260505163120 | 74 | 247 | 1.0 | 3.0 | 0.00 | 0.00 | 0.00 | 90 | 1009.7 |
| 20260505162617 | 74 | 167 | 2.0 | 2.0 | 0.00 | 0.00 | 0.00 | 90 | 1009.6 |
| 20260505162115 | 73 | 141 | 0.0 | 0.0 | 0.00 | 0.00 | 0.00 | 91 | 1009.5 |
| 20260505161612 | 73 | 154 | 0.0 | 0.0 | 0.00 | 0.00 | 0.00 | 91 | 1009.6 |
| 20260505161109 | 73 | 154 | 3.0 | 3.0 | 0.00 | 0.00 | 0.00 | 91 | 1009.7 |
| 20260505160607 | 73 | 150 | 1.0 | 2.0 | 0.00 | 0.00 | 0.00 | 92 | 1009.7 |
| 20260505160104 | 73 | 161 | 0.0 | 0.0 | 0.00 | 0.00 | 0.00 | 92 | 1009.7 |
| 20260505153043 | 72 | 213 | 0.0 | 2.0 | 0.00 | 0.00 | 0.00 | 94 | 1009.8 |
| 20260505152540 | 72 | 148 | 0.0 | 0.0 | 0.00 | 0.00 | 0.00 | 94 | 1009.7 |
| 20260505152036 | 71 | 154 | 0.0 | 2.0 | 0.00 | 0.00 | 0.00 | 94 | 1009.5 |
| 20260505151531 | 71 | 126 | 2.0 | 3.0 | 0.00 | 0.00 | 0.00 | 94 | 1009.6 |
| 20260505151029 | 71 | 127 | 3.0 | 5.0 | 0.00 | 0.00 | 0.00 | 94 | 1009.8 |
| 20260505150525 | 71 | 158 | 1.0 | 2.0 | 0.00 | 0.00 | 0.00 | 95 | 1009.6 |
| 20260505140450 | 71 | 166 | 2.0 | 3.0 | 0.00 | 0.00 | 0.00 | 94 | 1009.1 |
| 20260505124903 | 70 | 201 | 4.0 | 5.0 | 0.00 | 0.00 | 0.00 | 94 | 1008.5 |
| 20260505124401 | 70 | 164 | 5.0 | 7.0 | 0.00 | 0.00 | 0.00 | 94 | 1008.4 |
| 20260505123856 | 70 | 145 | 0.0 | 0.0 | 0.00 | 0.00 | 0.00 | 94 | 1008.3 |
| 20260505123353 | 70 | 136 | 2.0 | 3.0 | 0.00 | 0.00 | 0.00 | 94 | 1008.1 |
| 20260505122849 | 70 | 88 | 2.0 | 3.0 | 0.00 | 0.00 | 0.00 | 94 | 1008.2 |
| 20260505122347 | 70 | 225 | 2.0 | 3.0 | 0.00 | 0.00 | 0.00 | 94 | 1008.1 |
| 20260505121843 | 70 | 290 | 9.0 | 14.0 | 0.00 | 0.00 | 0.00 | 94 | 1008.1 |
| 20260505121340 | 70 | 151 | 2.0 | 2.0 | 0.00 | 0.00 | 0.00 | 94 | 1007.9 |
| 20260505120836 | 70 | 200 | 4.0 | 7.0 | 0.00 | 0.00 | 0.00 | 94 | 1007.9 |
| 20260505120332 | 70 | 156 | 2.0 | 3.0 | 0.00 | 0.00 | 0.00 | 95 | 1007.9 |
| 20260505115831 | 70 | 99 | 3.0 | 5.0 | 0.00 | 0.00 | 0.00 | 95 | 1007.7 |
| 20260505115329 | 70 | 162 | 0.0 | 2.0 | 0.00 | 0.00 | 0.00 | 95 | 1007.8 |
| 20260505114827 | 70 | 113 | 2.0 | 3.0 | 0.00 | 0.00 | 0.00 | 95 | 1007.7 |
| 20260505114323 | 69 | 176 | 0.0 | 0.0 | 0.00 | 0.00 | 0.00 | 95 | 1007.7 |
| 20260505113819 | 69 | 63 | 2.0 | 3.0 | 0.00 | 0.00 | 0.00 | 95 | 1008.0 |
| 20260505113316 | 69 | 193 | 5.0 | 7.0 | 0.00 | 0.00 | 0.00 | 95 | 1007.8 |
| 20260505112811 | 69 | 174 | 2.0 | 5.0 | 0.00 | 0.00 | 0.00 | 95 | 1007.9 |
| 20260505112309 | 69 | 136 | 0.0 | 2.0 | 0.00 | 0.00 | 0.00 | 95 | 1008.0 |
| 20260505111804 | 69 | 283 | 5.0 | 7.0 | 0.00 | 0.00 | 0.00 | 95 | 1007.8 |
| 20260505111259 | 69 | 202 | 3.0 | 5.0 | 0.00 | 0.00 | 0.00 | 95 | 1007.7 |
| 20260505110756 | 69 | 80 | 3.0 | 5.0 | 0.00 | 0.00 | 0.00 | 95 | 1007.8 |
| 20260505110254 | 70 | 175 | 3.0 | 5.0 | 0.00 | 0.00 | 0.00 | 95 | 1008.0 |
| 20260505101728 | 70 | 111 | 2.0 | 3.0 | 0.00 | 0.00 | 0.00 | 93 | 1008.0 |
| 20260505101224 | 70 | 174 | 2.0 | 3.0 | 0.00 | 0.00 | 0.00 | 93 | 1008.2 |
| 20260505100721 | 70 | 159 | 5.0 | 7.0 | 0.00 | 0.00 | 0.00 | 93 | 1008.2 |
| 20260505100218 | 70 | 171 | 3.0 | 5.0 | 0.00 | 0.00 | 0.00 | 93 | 1008.1 |
| 20260505095713 | 70 | 154 | 1.0 | 2.0 | 0.00 | 0.00 | 0.00 | 93 | 1008.2 |
| 20260505095211 | 70 | 168 | 0.0 | 2.0 | 0.00 | 0.00 | 0.00 | 93 | 1008.0 |
| 20260505094706 | 70 | 171 | 4.0 | 5.0 | 0.00 | 0.00 | 0.00 | 93 | 1007.9 |
| 20260505094202 | 70 | 118 | 3.0 | 5.0 | 0.00 | 0.00 | 0.00 | 93 | 1007.9 |
| 20260505093659 | 70 | 109 | 2.0 | 3.0 | 0.00 | 0.00 | 0.00 | 93 | 1008.0 |
| 20260505093156 | 70 | 273 | 2.0 | 3.0 | 0.00 | 0.00 | 0.00 | 93 | 1008.1 |
| 20260505092653 | 70 | 183 | 1.0 | 3.0 | 0.00 | 0.00 | 0.00 | 93 | 1008.0 |
| 20260505092152 | 70 | 259 | 5.0 | 9.0 | 0.00 | 0.00 | 0.00 | 93 | 1008.1 |
| 20260505091648 | 70 | 110 | 5.0 | 10.0 | 0.00 | 0.00 | 0.00 | 93 | 1007.9 |
| 20260505091146 | 70 | 95 | 2.0 | 3.0 | 0.00 | 0.00 | 0.00 | 93 | 1007.9 |
| 20260505090644 | 70 | 173 | 2.0 | 5.0 | 0.00 | 0.00 | 0.00 | 93 | 1008.1 |
| 20260505090142 | 70 | 140 | 2.0 | 3.0 | 0.00 | 0.00 | 0.00 | 93 | 1008.2 |
| 20260505085639 | 70 | 186 | 5.0 | 7.0 | 0.00 | 0.00 | 0.00 | 93 | 1008.4 |
| 20260505085137 | 70 | 156 | 3.0 | 7.0 | 0.00 | 0.00 | 0.00 | 93 | 1008.3 |
| 20260505084634 | 70 | 159 | 1.0 | 2.0 | 0.00 | 0.00 | 0.00 | 93 | 1008.3 |
| 20260505084133 | 70 | 151 | 1.0 | 3.0 | 0.00 | 0.00 | 0.00 | 93 | 1008.2 |
| 20260505083630 | 70 | 138 | 6.0 | 9.0 | 0.00 | 0.00 | 0.00 | 93 | 1008.6 |
| 20260505083126 | 70 | 149 | 2.0 | 3.0 | 0.00 | 0.00 | 0.00 | 93 | 1008.3 |
| 20260505082622 | 70 | 62 | 4.0 | 5.0 | 0.00 | 0.00 | 0.00 | 93 | 1008.2 |
| 20260505082119 | 70 | 90 | 2.0 | 2.0 | 0.00 | 0.00 | 0.00 | 93 | 1008.6 |
| 20260505081615 | 70 | 132 | 6.0 | 10.0 | 0.00 | 0.00 | 0.00 | 92 | 1008.6 |
| 20260505081113 | 70 | 192 | 4.0 | 5.0 | 0.00 | 0.00 | 0.00 | 92 | 1008.8 |
| 20260505080609 | 70 | 131 | 2.0 | 3.0 | 0.00 | 0.00 | 0.00 | 92 | 1008.5 |
| 20260505080106 | 70 | 4 | 5.0 | 7.0 | 0.00 | 0.00 | 0.00 | 92 | 1008.7 |
| 20260505075601 | 70 | 11 | 7.0 | 10.0 | 0.00 | 0.00 | 0.00 | 92 | 1008.8 |
| 20260505075058 | 70 | 187 | 3.0 | 3.0 | 0.00 | 0.00 | 0.00 | 92 | 1008.8 |
| 20260505074555 | 70 | 207 | 8.0 | 12.0 | 0.00 | 0.00 | 0.00 | 92 | 1008.7 |
| 20260505074053 | 70 | 108 | 3.0 | 5.0 | 0.00 | 0.00 | 0.00 | 91 | 1009.1 |
| 20260505073550 | 70 | 161 | 3.0 | 5.0 | 0.00 | 0.00 | 0.00 | 91 | 1009.1 |
| 20260505073049 | 70 | 203 | 5.0 | 7.0 | 0.00 | 0.00 | 0.00 | 91 | 1008.9 |
| 20260505072544 | 70 | 320 | 3.0 | 7.0 | 0.00 | 0.00 | 0.00 | 91 | 1009.0 |
| 20260505072041 | 70 | 197 | 2.0 | 3.0 | 0.00 | 0.00 | 0.00 | 92 | 1009.1 |
| 20260505071536 | 70 | 122 | 3.0 | 5.0 | 0.00 | 0.00 | 0.00 | 91 | 1009.1 |
| 20260505071035 | 70 | 191 | 3.0 | 5.0 | 0.00 | 0.00 | 0.00 | 91 | 1009.4 |
| 20260505070532 | 71 | 204 | 1.0 | 5.0 | 0.00 | 0.00 | 0.00 | 91 | 1009.4 |
| 20260505070028 | 70 | 163 | 2.0 | 5.0 | 0.00 | 0.00 | 0.00 | 91 | 1009.3 |